User: anonymous   Login
Location: Unspecified
(0.0000°N, 0.0000°E)
Time: 20:00:28
(UTC+00:00)
Language:

Nova 2 - Orbit

View from above orbital plane
View from above orbital plane
View from above satellite
View from above satellite

Ground track
Ground track

The orbit data is extracted from the following two-line orbital elements,

1 19223U 88052A   17144.90161562 -.00000002 +00000-0 -26457-4 0  9999
2 19223 089.9659 087.0658 0030191 345.2327 077.6113 13.22650056396518
Epoch (UTC): 24 May 2017 21:38:19
Eccentricity: 0.0030191
inclination: 89.9659°
perigee height: 1152 km
apogee height: 1197 km
right ascension of ascending node: 87.0658°
argument of perigee: 345.2327°
revolutions per day: 13.22650056
mean anomaly at epoch: 77.6113°
orbit number at epoch: 39651

The dashed part of the orbit path shows where the satellite is in the earth's shadow,  

DLR